Hourly Data Report for December 28, 2018

TORONTO CITY
ONTARIO
Current Station Operator: ECCC - MSC

43°40'00.000" N
79°24'00.000" W
112.50 m
6158355
71508
XTO

Download Data

Hourly Data (December 2018)
Hourly Data Report for December 28, 2018
TIME
LST
Temp Definition
°C
Dew Point Definition
°C
Rel Hum Definition
%
Precip. Amount Definition
mm

Wind Dir Definition
10's deg

Wind Spd Definition
km/h
Visibility Definition
km
Stn Press Definition
kPa
Hmdx Definition


Wind Chill Definition


Weather Definition


00:00 3.4 1.8 89 1.9 LegendMM LegendMM   99.94     LegendNANA
01:00 3.7 2.3 91 2.1 LegendMM LegendMM   99.92     LegendNANA
02:00 4.0 2.7 91 0.2 LegendMM LegendMM   99.80     LegendNANA
03:00 5.2 4.0 92 0.8 LegendMM LegendMM   99.72     LegendNANA
04:00 7.0 5.4 90 0.0 LegendMM LegendMM   99.63     LegendNANA
05:00 7.6 5.5 86 0.0 LegendMM LegendMM   99.56     LegendNANA
06:00 8.0 6.4 90 0.4 LegendMM LegendMM   99.52     LegendNANA
07:00 8.2 7.0 92 0.2 LegendMM LegendMM   99.52     LegendNANA
08:00 8.1 7.0 92 0.2 LegendMM LegendMM   99.50     LegendNANA
09:00 8.5 7.2 92 0.0 LegendMM LegendMM   99.47     LegendNANA
10:00 9.1 7.3 88 0.0 LegendMM LegendMM   99.41     LegendNANA
11:00 9.8 7.8 87 0.0 LegendMM LegendMM   99.35     LegendNANA
12:00 10.3 8.2 87 0.0 LegendMM LegendMM   99.17     LegendNANA
13:00 10.7 8.3 86 0.0 LegendMM LegendMM   99.18     LegendNANA
14:00 10.9 8.5 85 0.0 LegendMM LegendMM   99.12     LegendNANA
15:00 10.9 8.3 84 0.0 LegendMM LegendMM   99.13     LegendNANA
16:00 10.1 7.9 86 0.0 LegendMM LegendMM   99.11     LegendNANA
17:00 10.1 7.9 86 0.0 LegendMM LegendMM   99.12     LegendNANA
18:00 10.5 7.8 83 0.0 LegendMM LegendMM   99.14     LegendNANA
19:00 9.2 6.8 85 0.0 LegendMM LegendMM   99.13     LegendNANA
20:00 9.7 7.3 85 0.0 LegendMM LegendMM   99.11     LegendNANA
21:00 10.3 5.5 72 0.0 LegendMM LegendMM   99.11     LegendNANA
22:00 7.5 2.3 69 0.0 LegendMM LegendMM   99.24     LegendNANA
23:00 6.2 0.7 68 0.0 LegendMM LegendMM   99.37     LegendNANA

Notes on Data Quality.

Legend

  • E = Estimated
  • M = Missing
  • NA = Not Available*
  • [empty] = Indicates an unobserved value
Date modified: